TimeEST,TemperatureF,Dew PointF,Humidity,Sea Level PressureIn,VisibilityMPH,Wind Direction,Wind SpeedMPH,Gust SpeedMPH,PrecipitationIn,Events,Conditions,WindDirDegrees,DateUTC
12:21 AM,50.0,48.2,94,30.20,9.0,NW,11.5,-,0.00,Rain,Light Rain,320,2012-11-16 05:21:00
12:54 AM,50.0,46.9,89,30.18,9.0,North,15.0,-,0.00,Rain,Light Rain,360,2012-11-16 05:54:00
1:54 AM,50.0,46.9,89,30.20,10.0,North,11.5,-,0.00,Rain,Light Rain,360,2012-11-16 06:54:00
2:54 AM,50.0,46.9,89,30.20,10.0,North,13.8,-,0.00,,Overcast,10,2012-11-16 07:54:00
3:54 AM,50.0,46.0,86,30.19,8.0,North,15.0,-,N/A,,Overcast,10,2012-11-16 08:54:00
4:54 AM,48.9,46.0,90,30.20,8.0,North,16.1,21.9,N/A,,Overcast,10,2012-11-16 09:54:00
5:54 AM,48.9,45.0,86,30.22,8.0,North,11.5,-,N/A,,Overcast,10,2012-11-16 10:54:00
6:02 AM,48.2,44.6,87,30.23,10.0,North,15.0,-,N/A,,Overcast,10,2012-11-16 11:02:00
6:28 AM,46.4,44.6,93,30.24,10.0,North,9.2,-,N/A,,Mostly Cloudy,350,2012-11-16 11:28:00
6:54 AM,46.0,43.0,89,30.23,10.0,North,11.5,18.4,N/A,,Overcast,350,2012-11-16 11:54:00
7:05 AM,46.4,42.8,87,30.24,10.0,North,10.4,-,N/A,,Overcast,360,2012-11-16 12:05:00
7:23 AM,46.4,42.8,87,30.24,10.0,North,11.5,-,N/A,,Scattered Clouds,10,2012-11-16 12:23:00
7:54 AM,46.9,43.0,86,30.24,10.0,NNE,12.7,-,N/A,,Mostly Cloudy,20,2012-11-16 12:54:00
8:51 AM,48.2,42.8,82,30.27,10.0,North,12.7,-,N/A,,Scattered Clouds,10,2012-11-16 13:51:00
8:54 AM,48.0,43.0,83,30.25,10.0,North,11.5,-,N/A,,Scattered Clouds,10,2012-11-16 13:54:00
9:54 AM,53.1,43.0,69,30.26,10.0,NNE,12.7,-,N/A,,Partly Cloudy,20,2012-11-16 14:54:00
10:54 AM,55.0,43.0,64,30.26,10.0,NNE,12.7,-,N/A,,Clear,20,2012-11-16 15:54:00
11:54 AM,57.9,42.1,56,30.24,10.0,North,15.0,-,N/A,,Clear,360,2012-11-16 16:54:00
12:54 PM,59.0,43.0,55,30.23,10.0,North,12.7,-,N/A,,Clear,10,2012-11-16 17:54:00
1:54 PM,59.0,42.1,53,30.23,10.0,NNE,10.4,19.6,N/A,,Clear,30,2012-11-16 18:54:00
2:54 PM,57.9,42.1,56,30.23,10.0,NNE,13.8,-,N/A,,Clear,20,2012-11-16 19:54:00
3:54 PM,55.9,41.0,57,30.25,10.0,NNE,13.8,-,N/A,,Mostly Cloudy,30,2012-11-16 20:54:00
4:54 PM,53.1,42.1,66,30.26,10.0,NNE,10.4,-,N/A,,Mostly Cloudy,30,2012-11-16 21:54:00
5:54 PM,51.1,43.0,74,30.29,10.0,NE,8.1,-,N/A,,Scattered Clouds,40,2012-11-16 22:54:00
6:54 PM,50.0,42.1,74,30.30,10.0,NNE,12.7,-,N/A,,Clear,30,2012-11-16 23:54:00
7:54 PM,48.9,41.0,74,30.31,10.0,NNE,12.7,-,N/A,,Scattered Clouds,30,2012-11-17 00:54:00
8:54 PM,46.9,39.9,77,30.32,10.0,NNE,11.5,-,N/A,,Clear,20,2012-11-17 01:54:00
9:54 PM,46.0,37.0,71,30.33,10.0,NNE,10.4,-,N/A,,Clear,20,2012-11-17 02:54:00
10:54 PM,45.0,34.0,65,30.34,10.0,North,9.2,-,N/A,,Clear,10,2012-11-17 03:54:00
11:54 PM,45.0,36.0,71,30.34,10.0,NNE,9.2,-,N/A,,Clear,20,2012-11-17 04:54:00